Powrót do katalogu

COSMOS 1844

AktywnyMilitariaLEO
NORAD 17973·PAYLOAD·🇷🇺 Russia

Wystrzelony May 13, 1987 z Baikonur Cosmodrome

Loading…

Następne Przeloty (najbliższe 24 godziny)

TLE

ŚwieżeSource: Space-Track

Epoka: Sep 14, 2026, 06:38 UTC

1 17973U 87041A   26257.27673434 -.00000279  00000-0 -11962-3 0  9997
2 17973  70.9017 356.3858 0028344  99.8992 260.5331 14.14580770 30255

Śledź COSMOS 1844 w czasie rzeczywistym z AllMySat

Download on the App Store